| time (UTC) | temp F | wind direction | speed MPH | gust MPH | rain 1hr in | rain 24hr in | rain mn in | humidity % | barometer mb |
| 20260509150055 | 74 | 171 | 9.0 | 15.0 | 0.00 | 0.00 | 0.00 | 55 | 1014.5 |
| 20260509144555 | 73 | 223 | 10.0 | 14.0 | 0.00 | 0.00 | 0.00 | 57 | 1014.7 |
| 20260509143057 | 71 | 215 | 10.0 | 14.0 | 0.00 | 0.00 | 0.00 | 62 | 1014.7 |
| 20260509141602 | 70 | 234 | 11.0 | 15.0 | 0.00 | 0.00 | 0.00 | 65 | 1014.5 |
| 20260509134554 | 68 | 217 | 9.0 | 12.0 | 0.00 | 0.00 | 0.00 | 74 | 1014.4 |
| 20260509133054 | 66 | 227 | 7.0 | 9.0 | 0.00 | 0.00 | 0.00 | 77 | 1014.5 |
| 20260509131551 | 65 | 226 | 6.0 | 11.0 | 0.00 | 0.00 | 0.00 | 79 | 1014.4 |
| 20260509130054 | 64 | 194 | 7.0 | 10.0 | 0.00 | 0.00 | 0.00 | 81 | 1014.0 |
| 20260509124559 | 62 | 183 | 7.0 | 11.0 | 0.00 | 0.00 | 0.00 | 82 | 1013.7 |
| 20260509123103 | 61 | 179 | 4.0 | 8.0 | 0.00 | 0.00 | 0.00 | 82 | 1013.8 |
| 20260509121558 | 60 | 169 | 7.0 | 10.0 | 0.00 | 0.00 | 0.00 | 81 | 1013.4 |
| 20260509120055 | 60 | 188 | 6.0 | 8.0 | 0.00 | 0.00 | 0.00 | 81 | 1013.2 |
| 20260509114554 | 60 | 170 | 4.0 | 7.0 | 0.00 | 0.00 | 0.00 | 79 | 1013.1 |
| 20260509113122 | 61 | 184 | 4.0 | 9.0 | 0.00 | 0.00 | 0.00 | 79 | 1013.2 |
| 20260509111601 | 61 | 195 | 6.0 | 8.0 | 0.00 | 0.00 | 0.00 | 78 | 1013.0 |
| 20260509110053 | 62 | 185 | 6.0 | 9.0 | 0.00 | 0.00 | 0.00 | 77 | 1012.9 |
| 20260509104558 | 62 | 192 | 5.0 | 10.0 | 0.00 | 0.00 | 0.00 | 76 | 1012.7 |
| 20260509103058 | 63 | 174 | 6.0 | 10.0 | 0.00 | 0.00 | 0.00 | 75 | 1012.4 |
| 20260509101553 | 63 | 192 | 8.0 | 10.0 | 0.00 | 0.00 | 0.00 | 76 | 1012.5 |
| 20260509100111 | 63 | 175 | 4.0 | 8.0 | 0.00 | 0.00 | 0.00 | 75 | 1012.7 |
| 20260509094604 | 63 | 169 | 8.0 | 11.0 | 0.00 | 0.00 | 0.00 | 75 | 1012.6 |
| 20260509093059 | 63 | 165 | 8.0 | 12.0 | 0.00 | 0.00 | 0.00 | 75 | 1012.6 |
| 20260509091611 | 64 | 167 | 7.0 | 11.0 | 0.00 | 0.00 | 0.00 | 74 | 1012.6 |
| 20260509090052 | 64 | 154 | 8.0 | 11.0 | 0.00 | 0.00 | 0.00 | 71 | 1012.7 |
| 20260509084553 | 65 | 146 | 7.0 | 10.0 | 0.00 | 0.00 | 0.00 | 69 | 1012.7 |
| 20260509083054 | 65 | 150 | 8.0 | 10.0 | 0.00 | 0.00 | 0.00 | 67 | 1012.8 |
| 20260509081601 | 65 | 119 | 7.0 | 10.0 | 0.00 | 0.00 | 0.00 | 66 | 1012.8 |
| 20260509080059 | 66 | 107 | 8.0 | 11.0 | 0.00 | 0.00 | 0.00 | 64 | 1013.0 |
| 20260509074555 | 66 | 121 | 6.0 | 10.0 | 0.00 | 0.00 | 0.00 | 60 | 1013.1 |
| 20260509073104 | 67 | 124 | 8.0 | 12.0 | 0.00 | 0.00 | 0.00 | 58 | 1013.2 |
| 20260509071556 | 67 | 67 | 12.0 | 21.0 | 0.00 | 0.00 | 0.00 | 58 | 1012.8 |
| 20260509070054 | 67 | 307 | 6.0 | 8.0 | 0.00 | 0.00 | 0.00 | 53 | 1012.4 |
| 20260509064556 | 67 | 209 | 1.0 | 3.0 | 0.00 | 0.00 | 0.00 | 55 | 1012.2 |
| 20260509063102 | 68 | 217 | 4.0 | 9.0 | 0.00 | 0.00 | 0.00 | 53 | 1012.0 |
| 20260509061606 | 68 | 229 | 6.0 | 10.0 | 0.00 | 0.00 | 0.00 | 53 | 1012.1 |
| 20260509060058 | 68 | 238 | 8.0 | 11.0 | 0.00 | 0.00 | 0.00 | 53 | 1012.2 |
| 20260509054559 | 69 | 238 | 6.0 | 8.0 | 0.00 | 0.00 | 0.00 | 52 | 1012.2 |
| 20260509053102 | 70 | 238 | 5.0 | 7.0 | 0.00 | 0.00 | 0.00 | 50 | 1012.2 |
| 20260509051556 | 70 | 239 | 5.0 | 9.0 | 0.00 | 0.00 | 0.00 | 49 | 1012.1 |
| 20260509050100 | 69 | 238 | 8.0 | 9.0 | 0.00 | 0.00 | 0.00 | 49 | 1012.0 |
| 20260509044559 | 70 | 240 | 6.0 | 8.0 | 0.00 | 0.00 | 0.00 | 48 | 1011.9 |
| 20260509043101 | 70 | 214 | 5.0 | 7.0 | 0.00 | 0.00 | 0.00 | 47 | 1011.8 |
| 20260509041557 | 71 | 211 | 7.0 | 9.0 | 0.00 | 0.00 | 0.00 | 45 | 1011.8 |
| 20260509040057 | 71 | 201 | 7.0 | 9.0 | 0.00 | 0.00 | 0.00 | 44 | 1012.0 |
| 20260509034601 | 72 | 200 | 7.0 | 9.0 | 0.00 | 0.00 | 0.00 | 44 | 1011.9 |
| 20260509033052 | 72 | 185 | 5.0 | 7.0 | 0.00 | 0.00 | 0.00 | 44 | 1011.7 |
| 20260509031554 | 74 | 189 | 7.0 | 10.0 | 0.00 | 0.00 | 0.00 | 42 | 1011.6 |
| 20260509030057 | 74 | 202 | 8.0 | 10.0 | 0.00 | 0.00 | 0.00 | 42 | 1011.4 |
| 20260509024553 | 74 | 188 | 6.0 | 11.0 | 0.00 | 0.00 | 0.00 | 43 | 1011.3 |
| 20260509023053 | 75 | 192 | 8.0 | 10.0 | 0.00 | 0.00 | 0.00 | 42 | 1011.3 |
| 20260509021553 | 76 | 200 | 8.0 | 10.0 | 0.00 | 0.00 | 0.00 | 41 | 1011.2 |
| 20260509020051 | 77 | 197 | 8.0 | 10.0 | 0.00 | 0.00 | 0.00 | 39 | 1011.1 |
| 20260509014553 | 78 | 172 | 5.0 | 11.0 | 0.00 | 0.00 | 0.00 | 35 | 1010.9 |
| 20260509013054 | 79 | 166 | 6.0 | 10.0 | 0.00 | 0.00 | 0.00 | 34 | 1010.8 |
| 20260509011553 | 80 | 150 | 10.0 | 14.0 | 0.00 | 0.00 | 0.00 | 34 | 1010.7 |
| 20260509010053 | 80 | 149 | 8.0 | 14.0 | 0.00 | 0.00 | 0.00 | 34 | 1010.7 |
| 20260509004553 | 82 | 146 | 8.0 | 11.0 | 0.00 | 0.00 | 0.00 | 31 | 1010.6 |
| 20260509003053 | 82 | 149 | 5.0 | 8.0 | 0.00 | 0.00 | 0.00 | 29 | 1010.2 |
| 20260509001554 | 82 | 133 | 2.0 | 7.0 | 0.00 | 0.00 | 0.00 | 29 | 1010.1 |
| 20260509000055 | 82 | 0 | 0.0 | 6.0 | 0.00 | 0.00 | 0.00 | 29 | 1010.1 |
| 20260508234556 | 83 | 0 | 0.0 | 9.0 | 0.00 | 0.00 | 0.00 | 29 | 1010.1 |
| 20260508233103 | 83 | 106 | 5.0 | 10.0 | 0.00 | 0.00 | 0.00 | 29 | 1010.1 |
| 20260508231635 | 83 | 244 | 1.0 | 6.0 | 0.00 | 0.00 | 0.00 | 28 | 1010.2 |
| 20260508224609 | 83 | 65 | 1.0 | 9.0 | 0.00 | 0.00 | 0.00 | 28 | 1010.3 |
| 20260508223055 | 83 | 80 | 2.0 | 9.0 | 0.00 | 0.00 | 0.00 | 29 | 1010.0 |
| 20260508221555 | 82 | 40 | 6.0 | 11.0 | 0.00 | 0.00 | 0.00 | 29 | 1010.0 |
| 20260508214631 | 82 | 165 | 4.0 | 7.0 | 0.00 | 0.00 | 0.00 | 37 | 1010.3 |
| 20260508213054 | 81 | 0 | 0.0 | 11.0 | 0.00 | 0.00 | 0.00 | 39 | 1010.3 |
| 20260508211551 | 81 | 233 | 1.0 | 3.0 | 0.00 | 0.00 | 0.00 | 39 | 1010.7 |
| 20260508210056 | 79 | 325 | 2.0 | 5.0 | 0.00 | 0.00 | 0.00 | 42 | 1011.0 |
| 20260508204559 | 78 | 81 | 2.0 | 8.0 | 0.00 | 0.00 | 0.00 | 46 | 1011.1 |
| 20260508203115 | 77 | 94 | 4.0 | 7.0 | 0.00 | 0.00 | 0.00 | 47 | 1011.3 |
| 20260508201557 | 76 | 0 | 4.0 | 8.0 | 0.00 | 0.00 | 0.00 | 51 | 1011.4 |
| 20260508200053 | 75 | 88 | 3.0 | 8.0 | 0.00 | 0.00 | 0.00 | 53 | 1011.7 |
| 20260508194556 | 74 | 15 | 2.0 | 6.0 | 0.00 | 0.00 | 0.00 | 55 | 1011.9 |
| 20260508193128 | 73 | 232 | 4.0 | 8.0 | 0.00 | 0.00 | 0.00 | 56 | 1012.0 |
| 20260508191555 | 71 | 77 | 3.0 | 13.0 | 0.00 | 0.00 | 0.00 | 60 | 1012.4 |
| 20260508190052 | 71 | 0 | 2.0 | 7.0 | 0.00 | 0.00 | 0.00 | 61 | 1012.8 |
| 20260508184557 | 70 | 140 | 6.0 | 10.0 | 0.00 | 0.00 | 0.00 | 65 | 1013.0 |
| 20260508183054 | 69 | 0 | 3.0 | 10.0 | 0.00 | 0.00 | 0.00 | 67 | 1013.1 |
| 20260508181554 | 68 | 111 | 4.0 | 8.0 | 0.00 | 0.00 | 0.00 | 69 | 1013.2 |
| 20260508180105 | 67 | 253 | 2.0 | 9.0 | 0.00 | 0.00 | 0.00 | 70 | 1013.5 |
| 20260508174605 | 66 | 116 | 1.0 | 6.0 | 0.00 | 0.00 | 0.00 | 73 | 1013.6 |
| 20260508173057 | 65 | 42 | 1.0 | 6.0 | 0.00 | 0.00 | 0.00 | 75 | 1013.8 |
| 20260508171553 | 64 | 169 | 1.0 | 6.0 | 0.00 | 0.00 | 0.00 | 77 | 1014.0 |
| 20260508170054 | 63 | 194 | 2.0 | 8.0 | 0.00 | 0.00 | 0.00 | 78 | 1014.2 |
| 20260508164558 | 63 | 159 | 1.0 | 6.0 | 0.00 | 0.00 | 0.00 | 79 | 1014.4 |
| 20260508163053 | 62 | 188 | 3.0 | 8.0 | 0.00 | 0.00 | 0.00 | 80 | 1014.5 |
| 20260508161553 | 61 | 170 | 4.0 | 9.0 | 0.00 | 0.00 | 0.00 | 81 | 1014.7 |
| 20260508160051 | 61 | 171 | 4.0 | 9.0 | 0.00 | 0.00 | 0.00 | 81 | 1014.6 |
| 20260508154551 | 61 | 163 | 3.0 | 7.0 | 0.00 | 0.00 | 0.00 | 82 | 1014.7 |
| 20260508153054 | 61 | 163 | 4.0 | 9.0 | 0.00 | 0.00 | 0.00 | 81 | 1014.7 |
| 20260508151553 | 61 | 190 | 5.0 | 9.0 | 0.00 | 0.00 | 0.00 | 81 | 1014.7 |